This is the latest recevied weather packets stored in our database for station/object WX9WTF. If no packets are shown the sender has not sent any weather packets the latest 10 day(s).
| Time | Temp. | Humidity | Pressure | Rain* | Wind** | Luminosity | Snow |
|---|---|---|---|---|---|---|---|
| 1778115517 | 13.33° C | 40% | 1017.7 hPa | 0 mm | - | 14 W/m² | - |
| 1778115214 | 13.33° C | 39% | 1017.7 hPa | 0 mm | - | 17 W/m² | - |
| 1778114911 | 13.89° C | 38% | 1017.7 hPa | 0 mm | - | 20 W/m² | - |
| 1778114608 | 13.89° C | 38% | 1017.7 hPa | 0 mm | - | 24 W/m² | - |
| 1778114305 | 14.44° C | 38% | 1017.7 hPa | 0 mm | - | 28 W/m² | - |
| 1778114000 | 15° C | 36% | 1017.8 hPa | 0 mm | - | 31 W/m² | - |
| 1778113695 | 15° C | 37% | 1017.6 hPa | 0 mm | - | 40 W/m² | - |
| 1778113392 | 15° C | 35% | 1017.8 hPa | 0 mm | - | 47 W/m² | - |
| 1778113090 | 15° C | 38% | 1017.7 hPa | 0 mm | - | 49 W/m² | - |
| 1778112787 | 14.44° C | 37% | 1017.5 hPa | 0 mm | - | 39 W/m² | - |
| 1778112482 | 14.44° C | 37% | 1017.5 hPa | 0 mm | - | 45 W/m² | - |
| 1778112178 | 14.44° C | 36% | 1017.6 hPa | 0 mm | - | 42 W/m² | - |
| 1778111869 | 15° C | 35% | 1017.5 hPa | 0 mm | - | 62 W/m² | - |
| 1778111565 | 15° C | 36% | 1017.7 hPa | 0 mm | - | 74 W/m² | - |
| 1778111262 | 15° C | 36% | 1017.7 hPa | 0 mm | - | 50 W/m² | - |
| 1778110959 | 15° C | 36% | 1017.8 hPa | 0 mm | - | 64 W/m² | - |
| 1778110656 | 15° C | 38% | 1017.7 hPa | 0 mm | - | 50 W/m² | - |
| 1778110353 | 15° C | 35% | 1017.8 hPa | 0 mm | - | 51 W/m² | - |
| 1778110049 | 15° C | 35% | 1017.6 hPa | 0 mm | - | 52 W/m² | - |
| 1778109744 | 15.56° C | 40% | 1017.6 hPa | 0 mm | - | 53 W/m² | - |
| 1778109442 | 15.56° C | 38% | 1017.6 hPa | 0 mm | - | 59 W/m² | - |
| 1778109140 | 15.56° C | 36% | 1017.7 hPa | 0 mm | - | 82 W/m² | - |
| 1778108837 | 16.11° C | 36% | 1017.5 hPa | 0 mm | - | 213 W/m² | - |
| 1778108534 | 16.11° C | 34% | 1017.6 hPa | 0 mm | - | 264 W/m² | - |
| 1778108230 | 16.11° C | 36% | 1017.7 hPa | 0 mm | - | 282 W/m² | - |
* Rain latest hour (hover to see other rain measurements)
** Current wind speed in m/s (hover to see current wind gust speed)